Temp
-4 -5 -5 -7 -7 -5 -6 -6 -6 -6 -6 -6 -7 -7 -6 -6 -7 -6 -5 -6 -6 -6 -6 -7 -7 -6 -7 -7 -7 -7 -7 -8 -7 -8 -8 -8 -8 -8 -8 -8 -7 -7 -7 -7
-5 -5 -6 -7 -7 -7 -6 -6 -6 -6 -5 -6 -6 -7 -7 -7 -6 -7 -6 -6 -6 -6 -7 -7 -7 -7 -6 -6 -6 -6 -7 -6 -7 -7 -7 -8 -9 -8 -8 -8 -7 -7 -7 -7
-5 -6 -7 -7 -7 -6 -6 -6 -6 -6 -5 -6 -6 -6 -7 -7 -6 -7 -7 -6 -5 -5 -6 -6 -6 -6 -6 -6 -6 -6 -6 -7 -7 -6 -7 -7 -8 -8 -7 -7 -7 -7 -7 -7
-6 -7 -7 -7 -7 -6 -6 -6 -6 -6 -6 -6 -6 -6 -6 -7 -7 -7 -7 -6 -5 -7 -5 -6 -6 -6 -6 -6 -6 -6 -6 -6 -6 -6 -6 -6 -7 -7 -7 -7 -7 -7 -7 -7
-6 -7 -7 -7 -7 -6 -6 -6 -6 -6 -6 -6 -6 -5 -5 -6 -6 -7 -7 -6 -7 -4 -6 -5 -6 -6 -6 -6 -6 -6 -6 -6 -6 -6 -6 -6 -6 -6 -6 -7 -7 -7 -7 -7
-8 -7 -7 -6 -7 -7 -7 -7 -6 -5 -6 -5 -5 -5 -6 -6 -6 -7 -8 -6 -6 -7 -7 -4 -7 -7 -7 -7 -7 -7 -7 -6 -7 -7 -7 -6 -6 -6 -6 -6 -6 -6 -6 -7
-7 -7 -7 -7 -7 -7 -6 -7 -6 -6 -6 -6 -5 -5 -5 -6 -6 -6 -7 -7 -7 -6 -6 -3 -7 -7 -8 -8 -8 -7 -7 -7 -7 -7 -7 -7 -7 -6 -6 -6 -6 -6 -6 -6
-7 -7 -7 -7 -7 -7 -7 -6 -6 -6 -6 -6 -6 -6 -6 -6 -6 -7 -7 -6 -7 -7 -5 -7 -8 -7 -8 -7 -8 -8 -8 -8 -8 -7 -7 -7 -7 -6 -6 -6 -5 -5 -5 -6
-7 -7 -7 -7 -7 -7 -6 -6 -6 -7 -5 -5 -5 -6 -7 -6 -7 -7 -7 -6 -6 -7 -7 -7 -8 -7 -8 -8 -8 -8 -8 -8 -7 -8 -8 -7 -7 -6 -6 -6 -6 -6 -5 -5
-7 -7 -7 -7 -7 -7 -7 -7 -6 -5 -5 -4 -5 -5 -6 -6 -7 -8 -7 -6 -6 -6 -6 -7 -7 -7 -8 -8 -8 -8 -8 -8 -8 -8 -8 -8 -7 -6 -6 -6 -6 -6 -6 -6
-7 -7 -6 -7 -7 -7 -7 -7 -7 -6 -5 -5 -5 -7 -6 -7 -8 -7 -6 -6 -6 -7 -7 -7 -7 -8 -8 -9 -9 -9 -9 -9 -8 -9 -8 -8 -7 -7 -6 -6 -6 -6 -6 -6
-6 -7 -6 -6 -6 -7 -7 -6 -6 -6 -5 -6 -6 -7 -7 -7 -6 -5 -3 -7 -7 -7 -5 -6 -7 -7 -9 -9 -9 -9 -9 -9 -8 -8 -8 -8 -7 -7 -6 -6 -6 -6 -6 -6
-6 -6 -6 -6 -6 -7 -7 -7 -6 -6 -6 -6 -6 -8 -7 -6 -8 -6 -7 -8 -7 -7 -6 -5 -8 -8 -9 -9 -9 -9 -9 -9 -9 -9 -8 -8 -8 -7 -7 -7 -6 -6 -6 -6
-7 -7 -6 -7 -6 -7 -7 -6 -6 -7 -6 -6 -7 -7 -6 -6 -7 -7 -6 -6 -6 -7 -7 -8 -8 -8 -9 -9 -9 -9 -10 -9 -9 -9 -9 -8 -8 -8 -7 -7 -6 -6 -6 -5
-7 -8 -8 -7 -7 -7 -6 -6 -6 -6 -7 -8 -8 -7 -6 -6 -7 -7 -7 -6 -6 -6 -7 -8 -8 -9 -9 -9 -9 -9 -9 -9 -9 -9 -9 -8 -8 -8 -7 -7 -7 -7 -6 -6
-7 -9 -7 -6 -8 -7 -7 -6 -7 -7 -7 -8 -8 -7 -7 -8 -7 -7 -6 -6 -6 -6 -7 -7 -8 -8 -9 -9 -9 -9 -9 -9 -9 -9 -9 -8 -8 -8 -7 -7 -7 -7 -7 -7
-7 -8 -8 -8 -8 -7 -8 -8 -7 -8 -7 -6 -7 -6 -7 -7 -7 -6 -6 -6 -6 -6 -6 -7 -7 -7 -8 -8 -8 -9 -9 -9 -9 -9 -9 -8 -8 -8 -8 -7 -7 -7 -7 -7
-7 -8 -8 -8 -8 -7 -8 -8 -8 -8 -7 -7 -7 -6 -7 -7 -6 -6 -6 -6 -6 -7 -7 -7 -7 -8 -8 -8 -9 -8 -8 -8 -8 -8 -8 -8 -8 -8 -8 -8 -8 -7 -8 -8
-7 -8 -8 -7 -7 -7 -7 -8 -8 -8 -8 -7 -7 -7 -6 -6 -6 -5 -6 -6 -7 -7 -7 -8 -8 -8 -8 -9 -9 -9 -9 -9 -9 -9 -8 -8 -8 -8 -8 -8 -8 -8 -8 -8
-8 -8 -8 -8 -8 -7 -8 -8 -9 -8 -8 -8 -7 -7 -6 -6 -6 -5 -6 -7 -7 -8 -8 -8 -8 -8 -9 -9 -9 -9 -9 -9 -9 -9 -9 -8 -8 -8 -8 -8 -9 -9 -9 -9
-8 -8 -8 -8 -8 -8 -8 -9 -9 -8 -8 -8 -8 -7 -6 -6 -6 -6 -7 -7 -7 -8 -8 -8 -8 -9 -9 -9 -9 -9 -9 -9 -9 -9 -9 -9 -9 -9 -9 -10 -9 -9 -9 -9
-8 -8 -8 -9 -8 -8 -8 -9 -9 -9 -9 -8 -8 -8 -7 -7 -7 -7 -7 -7 -8 -8 -8 -8 -8 -9 -9 -9 -9 -9 -9 -9 -9 -9 -9 -10 -10 -10 -10 -10 -10 -10 -9 -9
-8 -9 -9 -8 -8 -8 -9 -8 -9 -9 -9 -9 -8 -8 -7 -7 -7 -8 -8 -8 -8 -8 -8 -9 -9 -9 -9 -9 -9 -10 -10 -10 -10 -10 -10 -10 -10 -10 -10 -10 -10 -10 -9 -9
-8 -8 -9 -9 -8 -9 -9 -8 -8 -9 -9 -8 -8 -8 -8 -7 -8 -8 -8 -8 -8 -8 -8 -9 -9 -9 -9 -9 -10 -10 -10 -10 -10 -10 -11 -11 -11 -11 -10 -10 -10 -10 -10 -10
-8 -9 -9 -9 -8 -8 -8 -9 -9 -8 -8 -8 -8 -8 -8 -8 -8 -8 -8 -8 -8 -8 -9 -9 -9 -9 -10 -10 -10 -10 -10 -10 -11 -11 -11 -11 -11 -11 -11 -11 -11 -11 -11 -11
-9 -8 -10 -9 -9 -9 -9 -9 -9 -8 -8 -8 -8 -8 -8 -8 -8 -8 -8 -8 -8 -9 -9 -9 -9 -10 -10 -10 -10 -10 -11 -11 -11 -11 -11 -11 -11 -11 -11 -12 -12 -12 -12 -12
Height
5918 5921 5924 5932 5936 5933 5935 5936 5942 5940 5936 5934 5935 5925 5927 5927 5921 5924 5924 5921 5918 5915 5912 5908 5908 5910 5911 5910 5910 5910 5909 5908 5906 5904 5902 5899 5900 5899 5897 5895 5895 5894 5893 5892
5915 5919 5923 5927 5932 5932 5937 5941 5942 5936 5936 5933 5934 5934 5927 5924 5924 5920 5923 5922 5917 5914 5914 5913 5912 5912 5912 5911 5911 5910 5910 5908 5907 5906 5904 5902 5901 5899 5899 5897 5897 5895 5894 5893
5912 5919 5923 5924 5929 5931 5935 5940 5934 5936 5934 5933 5935 5933 5929 5924 5923 5925 5920 5922 5916 5912 5913 5914 5913 5913 5913 5912 5911 5911 5909 5907 5906 5905 5902 5901 5901 5899 5899 5897 5896 5896 5894 5893
5910 5915 5925 5925 5927 5932 5935 5934 5935 5934 5934 5934 5934 5934 5934 5927 5928 5927 5925 5918 5915 5916 5911 5914 5916 5916 5915 5913 5912 5912 5910 5909 5907 5905 5904 5902 5901 5901 5900 5899 5898 5896 5894 5894
5908 5913 5919 5925 5927 5931 5931 5928 5931 5932 5931 5934 5933 5936 5926 5920 5915 5916 5925 5921 5918 5873 5909 5911 5917 5917 5916 5914 5912 5912 5911 5909 5906 5905 5903 5902 5901 5901 5900 5899 5897 5896 5894 5893
5905 5913 5917 5921 5925 5926 5927 5926 5928 5929 5930 5932 5933 5933 5921 5919 5918 5924 5923 5922 5920 5911 5889 5898 5915 5916 5915 5912 5910 5909 5909 5907 5905 5903 5903 5902 5901 5899 5899 5898 5895 5894 5893 5893
5899 5905 5914 5917 5921 5920 5922 5925 5928 5929 5928 5930 5929 5926 5920 5915 5916 5910 5916 5920 5917 5905 5880 5893 5907 5914 5913 5909 5907 5907 5905 5905 5903 5903 5901 5900 5900 5898 5896 5894 5893 5892 5891 5890
5897 5902 5909 5912 5917 5920 5920 5923 5927 5926 5926 5922 5918 5914 5922 5919 5916 5912 5917 5915 5914 5905 5892 5904 5912 5912 5909 5907 5904 5904 5902 5902 5901 5900 5899 5897 5895 5894 5892 5891 5889 5888 5887 5887
5898 5900 5907 5910 5911 5914 5916 5919 5924 5922 5925 5923 5922 5911 5911 5911 5916 5915 5914 5913 5914 5912 5909 5909 5908 5908 5906 5905 5903 5901 5900 5899 5897 5897 5895 5893 5890 5888 5886 5885 5884 5883 5882 5881
5894 5902 5903 5906 5908 5910 5912 5917 5919 5924 5923 5924 5922 5914 5905 5901 5900 5906 5911 5910 5910 5910 5908 5907 5905 5904 5903 5901 5900 5899 5897 5896 5895 5893 5891 5889 5887 5884 5881 5879 5878 5876 5875 5873
5889 5899 5902 5902 5904 5909 5913 5912 5914 5919 5921 5918 5914 5903 5903 5896 5903 5904 5906 5904 5905 5904 5902 5900 5898 5898 5897 5897 5895 5895 5893 5890 5889 5889 5885 5882 5880 5879 5876 5873 5872 5870 5869 5867
5884 5894 5900 5901 5904 5906 5907 5911 5915 5917 5918 5913 5910 5907 5906 5908 5904 5879 5866 5899 5897 5896 5895 5888 5886 5887 5892 5891 5888 5887 5886 5884 5881 5881 5879 5876 5871 5869 5867 5866 5865 5864 5862 5860
5882 5888 5897 5900 5904 5903 5901 5907 5911 5914 5907 5908 5907 5902 5898 5893 5898 5898 5901 5894 5896 5893 5894 5878 5871 5880 5887 5887 5884 5883 5880 5875 5871 5870 5870 5868 5866 5862 5860 5858 5856 5856 5855 5854
5879 5888 5892 5889 5897 5898 5899 5904 5906 5901 5903 5901 5897 5897 5898 5895 5899 5902 5898 5894 5894 5890 5889 5887 5884 5883 5882 5881 5878 5875 5873 5870 5867 5866 5861 5859 5858 5854 5852 5851 5849 5846 5845 5844
5874 5881 5879 5883 5888 5889 5892 5896 5898 5899 5903 5895 5888 5888 5888 5892 5898 5898 5894 5891 5889 5887 5885 5883 5880 5878 5876 5874 5871 5869 5865 5863 5859 5856 5852 5850 5849 5846 5844 5842 5840 5838 5836 5834
5871 5876 5876 5879 5882 5888 5889 5893 5895 5898 5900 5900 5890 5881 5888 5892 5895 5894 5890 5886 5885 5884 5881 5878 5874 5872 5869 5866 5863 5860 5857 5852 5849 5846 5844 5842 5840 5838 5836 5834 5832 5829 5827 5823
5866 5873 5878 5881 5883 5886 5887 5890 5892 5896 5894 5893 5891 5888 5889 5889 5887 5885 5884 5883 5881 5878 5876 5873 5869 5865 5861 5857 5856 5853 5849 5847 5842 5840 5837 5835 5832 5830 5827 5825 5822 5820 5818 5814
5863 5870 5876 5881 5881 5888 5886 5882 5887 5885 5887 5889 5889 5889 5888 5887 5884 5882 5880 5878 5875 5872 5869 5866 5862 5858 5855 5851 5848 5844 5840 5837 5834 5831 5829 5826 5823 5820 5817 5815 5812 5810 5807 5804
5861 5867 5873 5877 5878 5881 5880 5883 5887 5886 5884 5883 5885 5886 5885 5882 5879 5877 5875 5871 5868 5865 5861 5858 5854 5850 5848 5844 5839 5835 5832 5829 5826 5822 5819 5817 5814 5812 5809 5806 5803 5799 5796 5792
5862 5866 5870 5873 5872 5875 5872 5872 5872 5879 5879 5878 5879 5879 5878 5875 5872 5870 5868 5865 5862 5858 5855 5850 5846 5842 5839 5836 5831 5828 5824 5821 5818 5814 5811 5808 5805 5802 5798 5795 5792 5788 5784 5780
5856 5861 5862 5869 5871 5857 5863 5862 5872 5876 5874 5874 5873 5871 5870 5869 5866 5863 5860 5857 5854 5850 5847 5843 5839 5836 5832 5828 5824 5821 5817 5813 5810 5806 5802 5799 5796 5792 5788 5784 5781 5777 5773 5770
5852 5850 5859 5860 5859 5857 5859 5862 5865 5869 5870 5870 5869 5865 5863 5861 5859 5856 5853 5850 5847 5843 5840 5836 5832 5829 5824 5820 5817 5813 5809 5805 5801 5797 5793 5789 5785 5782 5778 5774 5770 5766 5763 5759
5849 5851 5846 5849 5853 5852 5852 5857 5857 5861 5864 5863 5862 5859 5857 5855 5853 5850 5848 5845 5840 5836 5832 5828 5824 5821 5817 5814 5810 5806 5801 5797 5793 5789 5785 5781 5777 5773 5769 5764 5760 5756 5752 5749
5837 5838 5840 5841 5841 5846 5854 5857 5857 5857 5858 5857 5855 5853 5850 5848 5845 5843 5840 5836 5833 5829 5825 5821 5817 5814 5810 5806 5802 5798 5793 5789 5785 5780 5776 5772 5767 5762 5758 5753 5749 5745 5742 5738
5833 5839 5837 5841 5839 5845 5846 5849 5852 5853 5851 5849 5847 5845 5842 5840 5837 5834 5832 5828 5824 5821 5817 5814 5810 5806 5802 5798 5794 5789 5785 5780 5776 5772 5767 5763 5758 5753 5748 5742 5737 5733 5728 5725
5826 5818 5834 5833 5838 5838 5842 5844 5845 5843 5842 5841 5840 5838 5835 5833 5830 5826 5823 5820 5816 5813 5810 5806 5802 5799 5794 5790 5786 5781 5776 5772 5767 5763 5758 5753 5748 5743 5738 5732 5727 5720 5715 5710
Wind_Speed
15 17 12 3 7 7 3 3 4 8 15 8 4 20 19 17 20 19 15 18 14 19 23 15 13 11 9 10 10 11 11 14 16 16 18 21 18 14 13 13 12 9 8 9
21 17 15 10 9 11 6 4 8 16 14 2 7 8 20 20 17 22 20 15 14 17 15 14 14 13 13 14 9 9 9 13 16 18 18 16 14 13 10 7 7 9 11 10
21 16 9 15 12 10 7 6 13 11 10 3 7 10 19 14 26 12 18 14 9 11 13 2 10 13 10 12 14 10 9 13 17 18 17 19 17 14 9 6 8 10 12 12
19 22 17 15 11 8 10 19 8 9 5 9 15 7 13 25 23 15 8 21 11 3 10 4 7 10 11 12 11 12 11 9 11 13 14 15 16 15 11 7 4 4 7 9
20 21 18 21 13 11 18 14 11 9 12 7 16 5 24 28 14 8 11 15 13 26 12 7 8 11 13 14 13 13 12 8 9 12 13 13 14 13 12 9 8 9 11 11
22 19 19 25 16 16 14 8 7 4 3 6 10 18 27 30 33 24 0 11 15 20 20 5 9 13 13 14 15 15 16 14 13 14 17 19 18 16 14 11 9 11 12 14
26 27 28 20 19 21 21 10 10 10 17 11 16 17 28 27 28 20 5 8 4 19 31 20 9 11 15 21 20 17 19 20 19 19 22 21 20 17 16 15 15 14 13 16
22 26 28 20 19 23 11 15 12 17 16 25 10 23 19 22 26 13 13 12 8 15 23 13 8 11 11 15 13 17 23 28 24 23 25 25 25 23 19 18 17 18 18 19
17 21 21 32 27 24 16 16 14 17 16 16 22 20 21 26 17 12 14 15 15 15 17 9 13 15 16 16 19 22 24 23 28 31 30 29 29 28 26 24 23 21 21 23
20 17 24 25 16 25 18 12 11 8 10 11 17 33 29 35 20 5 9 12 15 17 17 17 17 14 15 17 22 26 29 30 29 27 30 31 29 28 28 27 26 26 26 28
26 18 22 22 23 19 21 22 14 8 12 18 27 16 26 30 22 34 9 11 16 19 20 21 22 20 22 24 26 27 29 33 33 29 31 31 29 28 29 26 28 29 29 28
30 17 20 25 21 24 23 15 12 15 14 21 22 23 25 21 24 5 12 25 26 24 24 32 24 25 27 31 32 33 34 34 30 31 34 34 33 31 31 29 27 30 30 31
30 22 22 23 23 26 24 23 13 16 23 27 23 17 16 12 13 12 24 32 27 26 25 20 32 25 30 32 32 36 40 44 44 29 34 37 35 32 32 33 33 31 30 31
31 19 24 35 21 23 20 22 18 18 22 18 28 27 27 5 7 19 27 25 22 25 26 26 28 28 31 34 36 41 44 40 40 37 35 39 35 32 32 32 33 34 34 34
38 22 26 27 32 23 31 32 30 20 13 13 20 18 19 6 17 22 25 23 22 24 25 26 27 30 33 38 40 39 40 40 42 41 37 35 34 32 33 33 34 35 37 39
43 20 18 15 25 23 32 29 28 14 20 9 14 24 19 16 22 21 23 24 25 25 27 28 29 30 33 37 39 41 44 45 43 40 38 35 33 34 34 34 35 36 38 41
43 21 11 11 5 7 13 16 9 16 24 27 23 28 23 23 24 23 25 25 27 29 29 29 30 32 35 38 38 38 39 38 38 38 37 36 35 35 35 36 36 38 39 40
42 22 14 14 11 11 10 7 16 19 24 24 22 22 23 23 24 25 25 27 29 31 31 31 33 35 37 37 37 38 38 37 37 37 37 36 36 36 37 37 38 39 40 42
40 20 13 20 28 26 28 22 25 27 29 35 28 25 22 25 24 25 25 29 31 32 32 33 36 38 36 36 38 38 37 37 37 37 37 37 37 37 38 38 38 40 41 41
30 28 19 19 23 28 37 29 26 25 29 31 28 25 24 24 26 27 26 29 31 32 33 35 35 37 37 36 36 36 36 36 37 37 37 37 37 37 38 39 39 41 41 40
33 37 33 23 21 35 26 25 16 16 19 22 27 27 26 26 29 30 31 33 34 33 33 33 34 36 36 36 36 35 35 35 35 35 36 36 37 37 38 39 39 39 39 40
32 32 25 28 37 37 31 37 27 18 18 26 27 28 29 30 31 31 32 33 33 34 34 34 35 35 35 34 34 34 34 34 35 36 37 37 37 37 38 38 39 40 39 39
35 31 33 41 45 43 38 19 13 19 23 31 28 29 30 31 31 32 31 33 33 34 34 35 35 34 33 34 34 34 35 36 36 36 36 36 37 37 39 39 39 39 38 38
41 42 47 29 35 33 40 17 19 25 32 31 29 30 31 32 32 33 32 34 34 35 34 33 33 33 33 34 34 35 36 36 36 35 35 36 38 39 41 41 41 40 39 39
38 39 39 42 39 33 30 27 31 32 29 28 29 31 32 33 34 35 34 35 36 34 31 31 32 33 33 35 36 37 36 35 34 35 36 38 39 40 41 43 43 43 43 42
38 24 24 27 34 38 33 34 34 29 28 29 31 32 33 33 34 36 36 35 32 29 30 31 32 33 35 35 35 34 33 33 34 36 38 39 40 41 42 42 43 45 46 47
Wind_Direction
205 179 113 160 246 247 215 254 306 254 270 282 224 279 318 323 343 350 8 18 7 30 20 32 64 56 35 22 15 20 20 47 38 31 23 25 23 21 25 35 25 31 29 33
202 189 134 250 236 219 201 221 244 244 292 221 222 258 291 306 334 329 341 14 358 25 45 64 59 42 29 19 24 43 29 29 20 22 23 14 14 15 24 23 31 25 19 21
213 196 180 244 229 224 200 212 244 244 279 124 236 277 269 279 298 328 319 339 349 9 33 52 17 11 16 11 13 5 2 358 3 18 17 29 27 38 46 38 35 25 13 10
215 163 220 256 210 219 236 210 206 231 258 269 333 276 255 251 268 281 282 309 306 330 14 32 315 322 351 349 351 348 344 348 358 7 15 15 17 24 38 19 359 1 5 358
204 185 204 228 217 205 242 251 207 250 251 239 276 255 245 254 299 164 291 298 308 215 326 334 318 308 321 330 328 325 325 325 349 7 6 7 3 3 359 10 3 0 348 348
206 191 208 229 214 240 216 229 213 227 250 254 256 229 269 271 284 287 163 310 311 298 226 318 319 322 311 309 308 310 312 320 340 348 351 350 343 338 339 337 339 341 333 325
196 197 218 216 212 235 222 224 242 258 236 275 286 255 248 272 291 276 22 285 306 291 314 317 352 314 320 318 301 294 299 304 314 328 331 325 321 321 323 319 315 318 318 317
215 207 200 224 212 230 248 216 223 249 285 268 266 235 253 275 294 287 282 298 298 315 306 341 262 294 328 331 329 321 308 290 295 305 311 312 314 312 315 314 307 305 308 310
220 219 209 223 239 204 210 215 231 265 293 291 291 285 252 268 291 261 299 292 289 288 298 298 278 295 296 304 310 306 304 307 290 290 298 306 305 307 309 307 305 301 301 303
178 241 196 225 228 205 223 220 221 241 265 252 250 251 263 280 226 145 296 295 305 302 301 294 290 293 291 301 300 300 301 298 297 298 296 294 292 291 294 297 296 297 298 302
161 198 238 204 226 217 227 235 224 240 258 259 238 275 291 294 307 285 240 311 308 300 291 286 288 292 293 297 294 294 294 292 295 295 298 300 296 290 290 293 293 294 295 297
174 193 219 224 235 221 228 223 250 243 259 248 262 290 283 277 309 356 100 321 319 311 298 287 277 294 294 291 289 289 287 286 287 282 296 303 306 300 293 294 288 287 290 295
162 178 210 198 216 232 212 214 198 218 247 247 253 260 265 146 285 307 284 312 317 310 309 300 319 294 287 287 289 292 292 285 272 271 289 300 303 300 294 291 292 289 285 290
167 178 233 234 205 207 224 217 214 241 258 266 246 266 291 245 314 298 299 305 312 303 308 295 297 293 292 291 292 293 291 293 296 304 297 297 299 296 292 290 289 288 288 290
166 198 225 226 198 212 213 210 200 193 263 317 316 315 156 13 319 299 303 300 306 310 308 303 293 288 288 288 289 295 300 297 302 303 302 298 294 293 291 291 292 293 295 295
168 196 237 224 198 216 219 207 190 189 237 246 299 289 291 322 298 289 300 303 301 304 305 303 299 295 291 290 292 295 295 297 302 302 299 294 293 293 291 291 291 291 293 295
174 186 203 201 131 210 212 223 202 221 247 240 252 262 282 295 302 302 299 302 303 299 298 298 299 299 295 295 296 293 294 296 295 295 294 293 293 292 292 291 290 291 292 292
179 174 208 203 200 211 243 171 194 212 254 260 273 264 278 290 293 292 297 302 299 300 300 299 301 301 300 300 298 297 297 297 296 295 295 295 295 295 294 293 292 291 290 289
189 181 179 212 198 205 219 229 244 250 263 272 273 272 274 291 294 295 303 299 303 303 301 300 300 302 304 301 299 298 298 297 296 296 296 296 295 294 292 291 291 291 290 288
191 194 199 209 238 233 228 213 206 237 258 269 283 281 286 297 300 301 299 302 303 302 300 298 302 304 305 302 298 298 297 297 297 296 296 295 294 294 294 294 293 293 292 291
188 210 209 213 237 259 235 249 246 226 257 287 298 299 299 301 300 303 304 306 306 304 301 301 302 303 304 302 300 299 298 298 298 297 298 298 298 297 296 296 296 294 293 293
199 220 198 225 226 237 234 234 256 237 279 295 297 297 300 299 300 299 301 304 305 302 302 301 303 304 303 301 300 300 300 301 302 302 302 301 300 299 298 298 297 296 294 292
204 211 204 225 230 236 250 242 281 276 284 299 294 293 294 294 295 295 297 300 301 303 302 302 304 304 303 302 302 304 305 305 305 303 301 300 301 301 300 299 298 297 296 294
206 225 206 223 235 247 264 251 263 284 289 288 290 292 292 294 295 295 299 299 301 302 301 302 302 302 303 304 306 307 305 304 302 302 303 304 303 302 301 301 300 298 295 294
209 215 227 237 242 253 260 275 271 275 282 288 291 292 292 293 296 298 301 301 302 301 301 301 302 304 306 307 307 306 305 304 305 305 305 305 304 304 304 303 302 301 300 297
202 177 218 229 246 258 265 264 274 278 284 288 289 291 292 295 298 301 301 300 301 301 301 302 305 308 308 308 307 306 307 309 309 309 309 308 307 306 305 304 303 302 300 298